SCP
0 0 0 0 0 0 0 0 0 0 0 0 0 0 0 0 0 0 0 0 0 0
0 0 0 0 0 0 0 0 0 0 0 0 0 0 0 0 0 0 0 0 0 0
0 0 0 0 0 0 0 0 0 0 0 0 0 0 0 0 0 0 0 0 0 0
0 0 0 0 0 0 0 0 0 0 0 0 0 0 0 0 0 0 0 0 0 0
0 0 0 0 0 0 0 0 0 0 0 0 0 0 0 0 0 0 0 0 0 0
0 0 0 0 0 0 0 0 0 0 0 0 0 0 0 0 0 0 0 0 0 0
0 0 0 0 0 0 0 0 0 0 0 0 0 0 0 0 0 0 0 0 0 0
-0 0 0 0 0 0 0 0 0 0 0 0 0 0 0 0 0 0 0 0 0 0
-0 0 0 0 0 0 0 0 0 0 0 0 0 0 0 0 0 0 0 0 0 0
0 -0 0 0 0 0 0 0 0 0 0 0 0 0 0 0 0 0 0 0 0 0
-0 -0 0 0 0 0 0 0 0 0 0 0 0 0 0 0 0 0 0 0 0 0
-0 -0 0 0 0 0 0 0 0 0 0 0 0 0 0 0 0 0 0 0 0 0
-0 -0 -0 0 -0 -0 0 0 0 0 0 0 0 -0 0 0 0 0 0 0 0 0
-0 -0 -0 -0 0 0 0 0 0 0 0 0 0 0 0 0 0 0 0 0 0 0
Wind_Speed_500mb
77 81 85 87 91 93 91 91 88 88 84 84 82 78 68 66 70 61 71 82 75 85
82 85 87 86 86 92 93 95 94 91 87 86 86 79 75 66 68 68 75 77 86 103
84 85 87 86 91 92 95 92 91 92 92 93 84 83 76 74 66 70 77 87 96 107
81 82 83 88 91 92 90 86 87 93 91 91 90 87 78 76 74 70 86 84 87 110
78 79 82 87 88 83 85 84 85 86 87 89 91 90 82 77 76 76 95 93 98 92
78 78 81 84 80 80 84 81 87 81 87 86 88 91 85 69 68 81 97 93 93 99
73 74 77 80 81 83 83 83 84 89 83 87 87 89 90 76 64 80 86 98 93 93
66 64 66 72 76 78 77 81 81 84 93 84 83 88 95 87 75 76 98 91 85 92
74 58 55 64 70 75 75 80 78 78 81 89 75 89 93 92 78 76 103 90 90 89
72 39 37 44 55 65 70 73 81 80 85 86 81 87 81 87 88 96 94 101 94 92
75 31 5 26 36 47 59 67 72 74 90 89 83 91 79 78 86 93 98 101 95 95
90 56 2 15 26 36 44 53 67 69 81 94 79 91 89 78 83 86 97 98 93 90
94 77 50 23 26 31 37 42 51 59 80 86 63 72 85 77 80 96 100 101 100 97
101 97 76 60 50 44 43 46 49 59 69 62 62 60 68 79 91 95 106 103 101 100
Wind_Direction_500mb
275 270 265 262 259 258 256 254 253 249 245 239 239 238 239 239 234 233 237 230 225 197
278 273 268 263 259 256 255 254 252 248 244 241 235 235 235 239 234 228 227 225 226 209
281 275 271 266 258 254 252 249 248 247 243 240 236 231 233 233 229 228 226 218 211 209
282 276 270 265 259 253 250 245 244 243 241 238 234 228 230 229 228 227 222 211 217 221
282 275 268 263 259 255 248 241 240 240 239 237 233 227 225 229 225 221 217 216 217 219
286 276 267 262 255 248 243 237 237 233 231 231 230 228 221 224 225 219 216 215 216 218
290 278 268 260 255 248 241 236 230 227 227 229 227 225 217 218 218 226 218 218 218 222
311 294 272 254 244 239 233 226 223 226 222 224 226 220 214 219 218 224 223 223 219 218
326 307 271 247 235 227 226 222 217 217 219 218 219 216 212 218 218 221 221 220 217 217
351 325 261 230 222 220 218 213 214 211 211 215 212 209 212 216 217 216 219 222 221 223
16 12 342 200 206 210 208 207 204 211 209 211 211 207 207 212 216 217 221 224 220 221
24 38 169 169 180 187 193 200 208 210 208 204 212 210 209 211 216 215 218 221 227 219
32 39 72 150 181 183 189 195 207 210 203 204 214 217 211 212 214 211 215 218 221 219
44 39 51 86 128 164 178 183 178 192 203 212 217 219 213 211 213 216 213 211 214 213
Wind_Speed_850mb
77 81 85 87 91 93 91 91 88 88 84 84 82 78 68 66 70 61 71 82 75 85
82 85 87 86 86 92 93 95 94 91 87 86 86 79 75 66 68 68 75 77 86 103
84 85 87 86 91 92 95 92 91 92 92 93 84 83 76 74 66 70 77 87 96 107
81 82 83 88 91 92 90 86 87 93 91 91 90 87 78 76 74 70 86 84 87 110
78 79 82 87 88 83 85 84 85 86 87 89 91 90 82 77 76 76 95 93 98 92
78 78 81 84 80 80 84 81 87 81 87 86 88 91 85 69 68 81 97 93 93 99
73 74 77 80 81 83 83 83 84 89 83 87 87 89 90 76 64 80 86 98 93 93
66 64 66 72 76 78 77 81 81 84 93 84 83 88 95 87 75 76 98 91 85 92
74 58 55 64 70 75 75 80 78 78 81 89 75 89 93 92 78 76 103 90 90 89
72 39 37 44 55 65 70 73 81 80 85 86 81 87 81 87 88 96 94 101 94 92
75 31 5 26 36 47 59 67 72 74 90 89 83 91 79 78 86 93 98 101 95 95
90 56 2 15 26 36 44 53 67 69 81 94 79 91 89 78 83 86 97 98 93 90
94 77 50 23 26 31 37 42 51 59 80 86 63 72 85 77 80 96 100 101 100 97
101 97 76 60 50 44 43 46 49 59 69 62 62 60 68 79 91 95 106 103 101 100
Wind_Direction_850mb
275 270 265 262 259 258 256 254 253 249 245 239 239 238 239 239 234 233 237 230 225 197
278 273 268 263 259 256 255 254 252 248 244 241 235 235 235 239 234 228 227 225 226 209
281 275 271 266 258 254 252 249 248 247 243 240 236 231 233 233 229 228 226 218 211 209
282 276 270 265 259 253 250 245 244 243 241 238 234 228 230 229 228 227 222 211 217 221
282 275 268 263 259 255 248 241 240 240 239 237 233 227 225 229 225 221 217 216 217 219
286 276 267 262 255 248 243 237 237 233 231 231 230 228 221 224 225 219 216 215 216 218
290 278 268 260 255 248 241 236 230 227 227 229 227 225 217 218 218 226 218 218 218 222
311 294 272 254 244 239 233 226 223 226 222 224 226 220 214 219 218 224 223 223 219 218
326 307 271 247 235 227 226 222 217 217 219 218 219 216 212 218 218 221 221 220 217 217
351 325 261 230 222 220 218 213 214 211 211 215 212 209 212 216 217 216 219 222 221 223
16 12 342 200 206 210 208 207 204 211 209 211 211 207 207 212 216 217 221 224 220 221
24 38 169 169 180 187 193 200 208 210 208 204 212 210 209 211 216 215 218 221 227 219
32 39 72 150 181 183 189 195 207 210 203 204 214 217 211 212 214 211 215 218 221 219
44 39 51 86 128 164 178 183 178 192 203 212 217 219 213 211 213 216 213 211 214 213